Regional Weather Roundup
Issued by NWS

Home | Current Version | Previous Version | Graphics & Text | Print | Product List | Glossary On
Versions: 1 2 3 4 5 6 7 8 9 10 11 12 13 14 15 16 17 18 19 20 21 22 23 24 25 26 27 28 29 30 31 32 33 34 35 36 37 38 39 40 41 42 43 44 45 46 47 48 49 50
984
ASUS45 KBOI 301710
RWRID

IDAHO REGIONAL WEATHER ROUNDUP
NATIONAL WEATHER SERVICE BOISE ID
1100 AM MDT SAT JUL 30 2016

NOTE: "FAIR" INDICATES FEW OR NO CLOUDS BELOW 12000 FEET
WITH NO SIGNIFICANT WEATHER AND/OR OBSTRUCTIONS TO VISIBILITY

IDZ012-014-301800-
SOUTHWEST IDAHO


CITY           SKY/WX    TMP DP  RH WIND       PRES   REMARKS
BOISE          SUNNY     86  42  21 W9        29.85S HAZE
CALDWELL       SUNNY     83  53  35 W7        29.84S
MOUNTAIN HOME  SUNNY     88  37  17 NW5       29.85S
$$

IDZ016-017-301800-
SOUTHCENTRAL IDAHO


CITY           SKY/WX    TMP DP  RH WIND       PRES   REMARKS
BURLEY         LGT RAIN  74  58  57 W8        29.96R
JEROME         MOSUNNY   82  43  25 SE6       29.95R
TWIN FALLS     PTSUNNY   84  44  24 NW7       29.94S
$$

IDZ019>023-301800-
SOUTHEAST IDAHO


CITY           SKY/WX    TMP DP  RH WIND       PRES   REMARKS
IDAHO FALLS    SUNNY     82  45  27 VRB3      29.98F
POCATELLO      MOSUNNY   79  46  31 SW5       29.98R
REXBURG        SUNNY     78  49  35 VRB3      29.99F
$$

IDZ006-010-011-018-031-032-301800-
CENTRAL IDAHO MOUNTAINS


CITY           SKY/WX    TMP DP  RH WIND       PRES   REMARKS
MCCALL         SUNNY     73  47  39 S6        29.99S
HAILEY         MOSUNNY   81  39  22 NW6       30.03S
STANLEY          N/A     72  37  28 N3        30.10F
SALMON         SUNNY     73  46  38 CALM      29.90F
CHALLIS        MOSUNNY   77  39  25 N3        29.98F
$$

IDZ002-004-006-007-026-301800-
NORTHERN IDAHO


CITY           SKY/WX    TMP DP  RH WIND       PRES   REMARKS
LEWISTON       SUNNY     84  50  30 NE3       29.78F
LOWELL           N/A     74  55  51 CALM      29.79F
COEUR D`ALENE  SUNNY     81  52  36 S13G21    29.77F
MULLAN PASS    SUNNY     66  43  43 VRB3      30.01S
$$




USA.gov is the U.S. government's official web portal to all federal, state and local government web resources and services.